Weather reports worldwide

Advertisment
Mafraq, Jordan (40265): temperature & dewpoint: 11.08.2018 15:00:00 - 17.08.2018 15:00:00 (EEST)Mafraq, Jordan (40265): wind speed: 11.08.2018 15:00:00 - 17.08.2018 15:00:00 (EEST)Mafraq, Jordan (40265): wind direction: 11.08.2018 15:00:00 - 17.08.2018 15:00:00 (EEST)Mafraq, Jordan (40265): reduced air pressure: 11.08.2018 15:00:00 - 17.08.2018 15:00:00 (EEST)Mafraq, Jordan (40265): visibility: 11.08.2018 15:00:00 - 17.08.2018 15:00:00 (EEST)
Date & Time tt [°C] td [°C] ff [km/h] ff [kn] dd ppp [hPa] vv [km]
17.08.2018 15:00:00 31,6 10,8 18 10 NW 1008,8 7
17.08.2018 14:00:00 - - - - - - -
17.08.2018 13:00:00 - - - - - - -
17.08.2018 12:00:00 28,1 14,0 18 10 NW 1009,7 5
17.08.2018 11:00:00 - - - - - - -
17.08.2018 10:00:00 - - - - - - -
17.08.2018 09:00:00 - - - - - - -
17.08.2018 08:00:00 - - - - - - -
17.08.2018 07:00:00 - - - - - - -
17.08.2018 06:00:00 19,3 16,9 15 8 WNW 1009,4 4,0
17.08.2018 05:00:00 - - - - - - -
17.08.2018 04:00:00 - - - - - - -
17.08.2018 03:00:00 18,4 16,1 15 8 N 1009,1 10
17.08.2018 02:00:00 - - - - - - -
17.08.2018 01:00:00 - - - - - - -
17.08.2018 00:00:00 20,9 16,2 8 4 N 1009,6 10
16.08.2018 23:00:00 - - - - - - -
16.08.2018 22:00:00 - - - - - - -
16.08.2018 21:00:00 24,5 17,5 11 6 NW 1009,8 10
16.08.2018 20:00:00 - - - - - - -
16.08.2018 19:00:00 - - - - - - -
16.08.2018 18:00:00 31,2 8,6 18 10 WNW 1008,0 10
16.08.2018 17:00:00 - - - - - - -
16.08.2018 16:00:00 - - - - - - -
16.08.2018 15:00:00 32,8 6,3 18 10 WNW 1007,6 8
16.08.2018 14:00:00 - - - - - - -
16.08.2018 13:00:00 - - - - - - -
16.08.2018 12:00:00 28,2 13,5 15 8 NNW 1009,1 6
16.08.2018 11:00:00 - - - - - - -
16.08.2018 10:00:00 - - - - - - -
16.08.2018 09:00:00 22,6 19,3 15 8 SSW 1009,5 5
16.08.2018 08:00:00 - - - - - - -
16.08.2018 07:00:00 - - - - - - -
16.08.2018 06:00:00 20,2 17,7 11 6 NNW 1008,2 4,0
16.08.2018 05:00:00 - - - - - - -
16.08.2018 04:00:00 - - - - - - -
16.08.2018 03:00:00 19,5 17,8 8 4 N 1008,4 6
16.08.2018 02:00:00 - - - - - - -
16.08.2018 01:00:00 - - - - - - -
16.08.2018 00:00:00 21,4 17,6 11 6 NW 1008,8 10
15.08.2018 23:00:00 - - - - - - -
15.08.2018 22:00:00 - - - - - - -
15.08.2018 21:00:00 - - - - - - -
15.08.2018 20:00:00 - - - - - - -
15.08.2018 19:00:00 - - - - - - -
15.08.2018 18:00:00 30,2 13,3 26 14 WNW 1007,0 10
15.08.2018 17:00:00 - - - - - - -
15.08.2018 16:00:00 - - - - - - -
15.08.2018 15:00:00 31,2 12,6 26 14 WNW 1006,6 8
15.08.2018 14:00:00 - - - - - - -
15.08.2018 13:00:00 - - - - - - -
15.08.2018 12:00:00 27,8 15,1 18 10 WNW 1004,5 8
15.08.2018 11:00:00 - - - - - - -
15.08.2018 10:00:00 - - - - - - -
15.08.2018 09:00:00 22,6 21,1 15 8 NW 1008,4 8
15.08.2018 08:00:00 - - - - - - -
15.08.2018 07:00:00 - - - - - - -
15.08.2018 06:00:00 20,0 19,4 0 0 N 1007,7 8
15.08.2018 05:00:00 - - - - - - -
15.08.2018 04:00:00 - - - - - - -
15.08.2018 03:00:00 19,5 17,8 8 4 N 1008,4 6
15.08.2018 02:00:00 - - - - - - -
15.08.2018 01:00:00 - - - - - - -
15.08.2018 00:00:00 21,0 18,8 0 0 N 1007,9 10
14.08.2018 23:00:00 - - - - - - -
14.08.2018 22:00:00 - - - - - - -
14.08.2018 21:00:00 24,0 18,5 11 6 WNW 1007,9 10
14.08.2018 20:00:00 - - - - - - -
14.08.2018 19:00:00 - - - - - - -
14.08.2018 18:00:00 28,4 13,8 15 8 WNW 1007,4 10
14.08.2018 17:00:00 - - - - - - -
14.08.2018 16:00:00 - - - - - - -
14.08.2018 15:00:00 30,0 14,8 22 12 WNW 1007,0 8
14.08.2018 14:00:00 - - - - - - -
14.08.2018 13:00:00 - - - - - - -
14.08.2018 12:00:00 26,4 16,4 18 10 WNW 1008,3 8
14.08.2018 11:00:00 - - - - - - -
14.08.2018 10:00:00 - - - - - - -
14.08.2018 09:00:00 23,0 17,0 18 10 NW 1008,4 8
14.08.2018 08:00:00 - - - - - - -
14.08.2018 07:00:00 - - - - - - -
14.08.2018 06:00:00 17,6 16,6 8 4 W 1008,4 6
14.08.2018 05:00:00 - - - - - - -
14.08.2018 04:00:00 - - - - - - -
14.08.2018 03:00:00 19,2 17,0 0 0 N 1008,4 10
14.08.2018 02:00:00 - - - - - - -
14.08.2018 01:00:00 - - - - - - -
14.08.2018 00:00:00 21,2 17,8 0 0 N 1008,4 10
13.08.2018 23:00:00 - - - - - - -
13.08.2018 22:00:00 - - - - - - -
13.08.2018 21:00:00 23,8 15,4 18 10 WNW 1008,7 10
13.08.2018 20:00:00 - - - - - - -
13.08.2018 19:00:00 - - - - - - -
13.08.2018 18:00:00 29,2 10,0 18 10 W 1008,3 8
13.08.2018 17:00:00 - - - - - - -
13.08.2018 16:00:00 - - - - - - -
13.08.2018 15:00:00 31,0 12,3 22 12 W 1008,3 8
13.08.2018 14:00:00 - - - - - - -
13.08.2018 13:00:00 - - - - - - -
13.08.2018 12:00:00 28,8 13,9 22 12 WNW 1009,1 8
13.08.2018 11:00:00 - - - - - - -
13.08.2018 10:00:00 - - - - - - -
13.08.2018 09:00:00 23,6 18,7 18 10 WNW 1008,8 5
13.08.2018 08:00:00 - - - - - - -
13.08.2018 07:00:00 - - - - - - -
13.08.2018 06:00:00 18,0 16,4 8 4 NW 1008,5 4,0
13.08.2018 05:00:00 - - - - - - -
13.08.2018 04:00:00 - - - - - - -
13.08.2018 03:00:00 19,4 12,9 0 0 N 1008,6 10
13.08.2018 02:00:00 - - - - - - -
13.08.2018 01:00:00 - - - - - - -
13.08.2018 00:00:00 20,8 13,4 0 0 N 1009,4 10
12.08.2018 23:00:00 - - - - - - -
12.08.2018 22:00:00 - - - - - - -
12.08.2018 21:00:00 26,2 16,5 15 8 W 1009,2 10
12.08.2018 20:00:00 - - - - - - -
12.08.2018 19:00:00 - - - - - - -
12.08.2018 18:00:00 30,8 14,2 26 14 WNW 1008,9 6
12.08.2018 17:00:00 - - - - - - -
12.08.2018 16:00:00 - - - - - - -
12.08.2018 15:00:00 32,2 12,7 26 14 WNW 1008,8 6
12.08.2018 14:00:00 - - - - - - -
12.08.2018 13:00:00 - - - - - - -
12.08.2018 12:00:00 30,5 15,6 18 10 WNW 1009,4 7
12.08.2018 11:00:00 - - - - - - -
12.08.2018 10:00:00 - - - - - - -
12.08.2018 09:00:00 - - - - - - -
12.08.2018 08:00:00 - - - - - - -
12.08.2018 07:00:00 - - - - - - -
12.08.2018 06:00:00 16,2 10,8 0 0 N 1009,4 7
12.08.2018 05:00:00 - - - - - - -
12.08.2018 04:00:00 - - - - - - -
12.08.2018 03:00:00 - - - - - - -
12.08.2018 02:00:00 - - - - - - -
12.08.2018 01:00:00 - - - - - - -
12.08.2018 00:00:00 23,5 15,3 15 8 WNW 1008,8 10
11.08.2018 23:00:00 - - - - - - -
11.08.2018 22:00:00 - - - - - - -
11.08.2018 21:00:00 26,2 17,9 16 9 WNW 1009,0 10
11.08.2018 20:00:00 - - - - - - -
11.08.2018 19:00:00 - - - - - - -
11.08.2018 18:00:00 31,8 15,6 16 9 WNW 1008,5 8
11.08.2018 17:00:00 - - - - - - -
11.08.2018 16:00:00 - - - - - - -
11.08.2018 15:00:00 34,0 6,5 18 10 W 1007,7 7

tt = temperature
td = dewpoint
ff = wind speed
dd = wind direction
ppp = reduced air pressure
vv = visibility

Next stations